Wind_Speed
47 47 45 42 42 45 46 45 44 45 46 47 48 49 51 51 52 53 55 57 59 63 66 67 68 68 69 72 75 73 73 75 77 77 79 80 81 81 83 85 89 92 94
50 50 48 47 46 46 45 45 45 46 47 48 49 50 51 52 53 54 57 60 62 64 66 68 69 68 73 76 76 76 78 79 79 79 80 81 81 83 85 87 89 92 96
49 49 50 51 49 48 47 47 47 48 48 48 49 50 52 53 55 58 59 61 62 63 65 67 70 73 77 77 77 79 80 81 81 81 82 82 84 85 86 88 90 93 96
51 53 53 52 52 53 52 50 51 52 52 50 50 51 52 54 56 59 61 61 62 65 67 70 71 75 76 74 78 80 81 82 83 83 82 84 84 85 86 89 91 94 94
51 52 53 55 55 55 55 55 56 56 54 53 53 53 53 54 57 59 61 63 65 69 71 71 74 76 72 77 80 80 81 82 82 81 83 83 83 85 88 90 93 94 93
51 50 53 56 55 55 56 57 57 55 53 53 53 54 54 55 57 60 63 65 68 72 73 73 77 70 76 80 79 80 81 81 81 81 82 81 82 86 91 93 93 90 93
51 50 49 50 51 52 54 55 54 52 52 53 55 57 58 59 61 64 67 69 71 72 75 78 69 74 80 77 78 80 78 78 80 81 80 81 85 91 91 90 89 92 95
48 47 46 47 49 51 51 51 52 53 54 55 57 60 61 61 63 66 69 71 73 76 76 68 68 76 76 76 78 76 77 76 76 77 79 85 87 87 87 89 92 95 95
48 48 48 48 49 49 50 52 54 55 55 56 59 60 61 63 66 67 71 73 72 75 69 65 74 75 74 75 75 75 75 70 75 80 84 85 85 85 88 91 93 95 95
58 57 56 55 55 56 57 57 58 59 61 61 61 61 62 65 68 69 70 71 74 66 64 71 73 72 73 73 72 69 69 74 79 81 80 78 80 83 86 89 88 89 88
57 57 58 55 56 57 58 60 60 62 62 63 64 64 65 65 66 66 69 69 62 64 72 74 69 69 68 65 67 70 72 78 79 76 76 79 82 84 84 84 82 84 85
65 65 64 63 63 62 61 61 61 63 64 64 65 64 65 64 63 64 64 65 71 77 69 65 64 62 64 67 68 74 76 73 71 75 79 82 85 86 85 83 83 84 87
67 69 70 69 67 66 66 66 63 62 63 63 64 65 65 65 67 69 72 70 64 61 60 60 63 63 66 73 75 72 71 73 76 79 81 82 83 82 81 82 84 84 86
62 62 63 64 65 64 65 65 64 61 60 59 59 56 57 59 59 58 58 59 58 59 59 59 66 74 76 69 65 69 72 76 79 80 80 79 79 80 80 81 82 86 88
59 62 63 63 62 65 64 61 56 47 44 46 48 52 54 58 60 60 59 56 57 63 70 74 72 67 63 64 68 71 73 75 77 77 77 77 78 79 79 81 83 85 88
54 51 53 58 56 48 45 42 44 45 46 49 53 54 55 56 56 60 66 70 71 71 72 68 66 65 66 68 70 72 73 74 75 78 80 79 78 77 78 79 83 86 87
51 58 54 50 45 46 49 53 52 51 52 56 60 61 64 67 67 67 67 67 67 69 65 64 65 67 68 70 72 73 74 76 78 80 79 77 76 76 76 79 84 87 82
51 52 50 50 52 54 56 57 58 57 58 58 60 63 64 65 66 65 64 63 64 63 63 65 66 68 70 71 72 74 75 77 78 79 76 76 76 75 77 79 82 81 76
51 53 54 54 55 56 57 58 59 58 60 63 65 65 63 63 63 63 62 63 64 62 63 66 68 70 71 72 73 75 77 79 78 76 74 74 75 74 77 80 78 73 69
54 56 59 60 59 57 56 60 61 61 61 61 62 61 60 59 60 61 62 63 64 65 66 67 69 70 73 75 77 79 79 76 73 73 72 73 73 74 77 78 71 69 55
54 55 57 57 57 53 54 57 57 58 58 58 60 61 61 60 60 61 62 63 64 65 68 69 72 75 77 80 81 79 78 75 72 70 71 71 72 74 75 72 67 57 46
55 56 57 59 60 60 59 58 56 58 58 58 59 60 60 60 60 61 63 65 67 69 71 74 77 80 81 80 79 78 75 73 71 70 70 71 72 73 71 66 60 45 40
55 57 58 58 59 59 58 56 57 58 58 58 59 59 59 60 62 65 68 70 72 75 77 80 82 83 80 78 74 72 70 70 70 70 70 69 70 70 66 59 47 39 35
57 57 55 55 56 56 57 58 58 58 59 60 60 62 66 68 69 71 73 74 76 77 78 80 81 80 75 72 70 70 69 70 70 70 70 70 69 65 58 50 40 35 32
50 52 53 54 55 55 55 56 57 60 63 64 67 70 73 73 75 77 79 79 81 81 80 79 77 72 70 69 69 69 69 69 68 68 67 64 60 56 51 41 35 32 30
49 50 51 53 55 57 60 63 65 65 68 71 74 76 78 79 82 83 82 82 81 81 81 78 74 71 69 69 68 67 66 66 65 63 60 56 52 49 43 36 32 30 28
Wind_Direction
274 277 277 277 278 277 275 275 275 273 273 274 274 275 275 276 276 278 279 280 281 282 285 287 289 290 294 293 289 290 292 293 295 296 298 300 301 303 304 306 306 307 311
273 276 277 277 278 280 279 277 276 275 275 276 275 275 275 276 278 279 279 280 283 286 288 289 291 294 292 292 289 291 293 294 296 298 299 300 301 302 304 305 305 309 312
270 275 278 279 281 281 280 280 280 280 280 279 279 278 277 278 279 280 282 283 286 289 290 292 295 293 292 291 290 291 292 293 295 297 298 299 300 301 303 304 307 310 311
273 274 275 277 277 280 280 281 283 285 283 280 279 279 279 279 279 280 282 284 286 288 290 293 294 291 292 289 288 289 291 293 294 295 297 298 299 301 302 304 307 310 314
273 274 273 273 274 275 277 280 283 284 282 281 280 279 279 279 279 280 282 284 286 289 291 293 291 290 289 286 285 288 291 292 292 294 296 297 298 300 303 305 308 312 314
275 273 270 271 272 273 274 276 277 278 278 279 278 278 278 279 280 281 282 284 286 288 291 291 288 288 284 283 286 289 290 291 292 294 295 297 299 303 304 308 312 314 313
274 274 273 272 271 270 271 271 272 273 275 276 277 278 278 278 279 281 283 285 287 288 289 290 287 283 282 285 287 288 290 291 292 294 295 300 301 302 309 312 313 314 316
277 275 274 273 273 274 273 273 274 274 275 275 276 275 275 277 279 281 282 283 284 287 289 288 281 280 283 285 286 289 290 291 292 295 298 300 304 309 311 313 315 316 318
277 277 278 278 279 281 282 282 281 278 276 275 274 274 276 278 279 281 281 282 285 285 286 281 279 281 282 284 288 288 290 292 295 297 299 305 310 312 314 315 317 319 318
278 278 279 280 281 280 280 279 279 279 278 276 275 276 277 276 277 278 280 283 285 284 281 277 278 280 282 286 287 290 292 294 295 301 308 310 312 315 316 318 319 318 316
279 280 279 280 280 280 279 279 276 277 278 279 278 276 276 275 275 277 279 282 280 275 273 273 278 282 284 286 289 293 291 293 302 307 310 312 315 316 318 318 316 315 314
275 274 274 276 279 280 280 279 278 278 278 278 277 275 275 277 275 275 274 271 270 271 275 278 281 284 285 289 288 289 300 306 307 310 311 313 315 317 317 317 316 314 313
270 270 271 273 275 276 277 277 277 277 277 276 274 273 273 273 271 271 273 274 275 276 279 281 284 286 283 287 300 305 306 308 310 311 313 315 316 317 317 315 314 312 313
274 275 275 273 275 276 277 276 273 272 271 270 271 271 272 274 274 272 273 275 278 281 283 282 281 290 301 303 303 305 307 308 311 312 314 315 316 316 315 313 312 312 313
278 277 277 277 277 279 278 273 268 268 271 274 276 276 274 274 275 278 281 282 278 277 284 291 299 300 302 303 304 305 307 310 311 312 314 315 315 313 312 312 314 315 315
274 276 277 275 276 272 267 265 274 273 272 272 273 270 271 272 272 274 276 282 289 293 297 298 298 299 299 301 303 306 308 309 311 312 312 313 312 311 311 313 313 315 316
279 276 277 271 265 267 266 266 267 267 270 273 273 275 278 280 283 286 288 291 292 293 295 296 296 298 300 302 304 306 307 308 309 309 311 311 309 308 308 311 314 315 316
265 266 264 263 267 269 267 267 270 273 275 278 280 282 285 286 288 289 290 290 291 292 293 295 297 299 301 303 304 305 306 306 307 308 309 307 305 306 308 312 315 317 316
264 266 265 271 269 268 270 271 273 276 280 283 283 284 286 288 288 288 289 289 291 293 295 296 298 300 302 303 304 304 304 305 306 306 304 303 303 305 307 312 317 316 317
266 270 270 269 265 266 270 273 274 278 280 282 284 285 285 285 287 288 289 291 293 294 296 298 298 300 302 303 303 302 302 303 303 301 300 301 303 303 307 313 314 315 313
264 267 268 271 276 278 281 281 282 285 285 285 285 285 286 287 289 291 292 293 293 294 296 297 298 300 300 301 301 301 301 300 299 298 299 300 301 304 308 311 312 311 308
268 273 279 282 285 287 287 286 284 283 283 284 285 286 287 289 291 292 293 294 294 295 296 297 298 298 298 299 299 299 298 297 297 297 297 298 301 304 307 310 310 304 302
282 282 285 285 285 284 283 284 285 285 286 287 287 288 289 291 293 296 297 297 297 296 295 295 295 296 297 297 295 294 294 294 294 295 296 298 299 302 305 306 302 299 294
283 282 282 282 282 282 283 284 285 286 286 288 290 290 291 294 296 296 296 295 295 294 295 295 295 294 293 293 293 292 292 292 292 293 294 295 298 299 301 301 295 293 288
280 281 282 283 284 284 284 284 284 285 287 288 290 292 294 294 295 295 295 294 294 294 294 294 293 291 291 292 292 290 290 290 290 290 291 293 294 296 297 292 289 286 281
282 282 282 282 283 284 284 285 286 288 289 291 294 295 295 294 294 294 294 295 295 295 294 293 290 288 289 290 290 289 289 288 288 288 289 290 290 290 289 287 281 280 277
Height
5745 5744 5743 5742 5741 5740 5739 5737 5734 5732 5730 5728 5727 5725 5724 5722 5719 5717 5715 5712 5709 5706 5701 5697 5692 5688 5683 5678 5672 5667 5661 5654 5647 5639 5633 5626 5617 5609 5601 5592 5583 5572 5561
5733 5732 5731 5731 5730 5728 5726 5724 5722 5720 5718 5716 5714 5712 5711 5709 5707 5705 5702 5699 5695 5692 5688 5683 5678 5674 5669 5662 5658 5652 5645 5638 5631 5624 5617 5609 5601 5592 5583 5574 5565 5555 5544
5722 5721 5719 5718 5716 5714 5712 5711 5709 5707 5705 5703 5701 5699 5697 5695 5694 5691 5688 5685 5681 5677 5673 5668 5664 5659 5653 5648 5642 5635 5628 5622 5614 5607 5600 5592 5584 5574 5565 5556 5547 5537 5527
5710 5709 5706 5704 5702 5701 5699 5697 5696 5694 5692 5690 5688 5685 5683 5682 5679 5676 5673 5670 5666 5662 5657 5653 5650 5642 5637 5632 5625 5618 5613 5605 5598 5590 5583 5575 5566 5558 5548 5540 5532 5517 5509
5697 5694 5693 5691 5688 5687 5685 5683 5681 5679 5678 5675 5673 5671 5669 5667 5664 5661 5658 5654 5651 5646 5641 5638 5633 5625 5623 5614 5606 5601 5594 5587 5579 5573 5566 5558 5548 5541 5531 5523 5515 5503 5491
5680 5679 5677 5676 5675 5673 5672 5669 5668 5665 5663 5661 5659 5656 5654 5652 5649 5646 5642 5639 5634 5630 5626 5622 5614 5611 5603 5595 5591 5584 5576 5569 5561 5555 5549 5540 5531 5522 5512 5502 5493 5483 5477
5666 5665 5664 5663 5662 5660 5657 5655 5653 5651 5649 5647 5645 5643 5640 5637 5633 5630 5627 5623 5618 5614 5610 5604 5602 5591 5582 5579 5574 5566 5560 5552 5543 5538 5533 5520 5515 5503 5494 5484 5473 5461 5449
5651 5650 5649 5648 5646 5645 5644 5642 5640 5637 5635 5632 5630 5627 5624 5622 5618 5615 5610 5606 5602 5598 5594 5590 5582 5570 5567 5562 5556 5551 5543 5534 5526 5521 5516 5507 5495 5485 5473 5462 5452 5440 5430
5636 5635 5634 5632 5631 5630 5629 5628 5626 5623 5620 5618 5616 5613 5611 5607 5603 5600 5594 5590 5586 5581 5578 5569 5560 5556 5549 5543 5541 5534 5528 5518 5511 5504 5497 5487 5476 5466 5452 5441 5430 5416 5408
5620 5619 5618 5617 5616 5614 5612 5610 5608 5607 5605 5603 5599 5597 5594 5591 5587 5582 5577 5573 5569 5566 5558 5548 5542 5537 5531 5528 5526 5519 5513 5503 5497 5489 5477 5468 5458 5447 5434 5420 5407 5395 5383
5605 5604 5602 5600 5598 5596 5594 5593 5590 5588 5586 5585 5582 5579 5576 5573 5569 5565 5561 5557 5552 5544 5536 5531 5526 5522 5519 5513 5508 5504 5497 5489 5480 5470 5463 5452 5442 5430 5418 5406 5393 5380 5367
5589 5588 5587 5585 5583 5580 5577 5575 5572 5570 5568 5566 5564 5562 5558 5555 5552 5548 5544 5537 5530 5526 5523 5518 5512 5507 5503 5498 5492 5487 5478 5468 5461 5452 5445 5436 5426 5414 5403 5392 5381 5368 5353
5568 5567 5566 5565 5563 5561 5560 5557 5555 5552 5550 5548 5546 5543 5540 5536 5533 5529 5525 5520 5516 5514 5509 5503 5498 5492 5488 5483 5472 5465 5459 5450 5442 5435 5427 5417 5407 5397 5386 5375 5365 5353 5342
5549 5547 5547 5546 5544 5542 5540 5538 5537 5535 5532 5530 5527 5524 5522 5519 5516 5512 5509 5506 5502 5497 5493 5489 5483 5475 5466 5460 5454 5447 5441 5434 5425 5417 5408 5399 5389 5379 5370 5360 5350 5336 5324
5532 5531 5529 5528 5526 5523 5522 5520 5519 5518 5516 5514 5512 5509 5506 5504 5501 5498 5494 5490 5488 5485 5479 5471 5461 5454 5449 5443 5438 5432 5425 5417 5409 5399 5390 5381 5373 5364 5353 5342 5332 5319 5306
5516 5514 5513 5512 5510 5508 5507 5505 5503 5501 5499 5498 5497 5494 5491 5488 5486 5483 5479 5473 5467 5462 5456 5451 5445 5439 5434 5429 5423 5416 5408 5400 5391 5382 5374 5365 5356 5347 5337 5327 5315 5303 5289
5499 5499 5498 5497 5496 5495 5494 5492 5490 5487 5485 5483 5481 5477 5474 5470 5467 5462 5458 5453 5447 5445 5440 5434 5429 5423 5417 5411 5405 5397 5389 5382 5374 5366 5357 5349 5340 5331 5322 5312 5301 5287 5272
5484 5483 5482 5480 5479 5478 5477 5475 5473 5472 5469 5466 5463 5460 5456 5452 5448 5444 5440 5434 5430 5427 5423 5418 5412 5406 5400 5393 5386 5379 5372 5364 5356 5349 5341 5333 5325 5316 5307 5297 5285 5272 5258
5468 5467 5465 5463 5462 5460 5459 5457 5456 5454 5451 5448 5445 5441 5438 5435 5429 5426 5423 5419 5414 5410 5406 5400 5395 5388 5382 5375 5368 5360 5353 5346 5339 5332 5325 5317 5309 5300 5292 5283 5271 5259 5248
5450 5450 5449 5448 5446 5445 5443 5442 5439 5436 5433 5431 5428 5424 5420 5417 5413 5410 5405 5402 5397 5392 5387 5382 5376 5370 5364 5357 5350 5343 5335 5328 5322 5315 5308 5300 5293 5284 5277 5268 5258 5248 5238
5435 5435 5434 5432 5431 5428 5427 5425 5422 5420 5416 5412 5410 5408 5405 5400 5395 5392 5388 5384 5379 5374 5369 5364 5358 5351 5345 5338 5331 5323 5315 5309 5303 5297 5291 5284 5277 5269 5262 5253 5246 5237 5229
5419 5418 5417 5415 5413 5411 5409 5406 5403 5401 5398 5396 5393 5390 5387 5382 5378 5374 5370 5365 5360 5355 5349 5343 5337 5331 5324 5317 5310 5303 5296 5289 5284 5279 5273 5267 5260 5254 5246 5239 5232 5227 5220
5402 5400 5399 5398 5396 5394 5391 5388 5386 5384 5381 5378 5375 5372 5368 5363 5359 5354 5349 5344 5339 5333 5327 5321 5314 5308 5302 5295 5289 5282 5276 5270 5265 5260 5255 5249 5244 5238 5231 5225 5219 5215 5211
5386 5385 5382 5380 5378 5376 5374 5372 5369 5367 5363 5360 5356 5352 5348 5344 5338 5333 5328 5323 5317 5311 5304 5297 5291 5285 5279 5273 5268 5262 5256 5250 5246 5241 5237 5232 5227 5221 5216 5212 5207 5204 5201
5371 5369 5367 5366 5363 5361 5358 5355 5352 5349 5345 5341 5337 5332 5327 5322 5316 5310 5305 5299 5293 5286 5280 5273 5267 5260 5256 5251 5246 5241 5235 5230 5225 5221 5217 5214 5209 5206 5202 5199 5196 5193 5191
5356 5354 5352 5349 5347 5345 5342 5338 5334 5330 5325 5320 5315 5309 5303 5297 5291 5284 5278 5272 5266 5259 5252 5247 5242 5237 5232 5227 5223 5219 5214 5209 5205 5202 5199 5196 5193 5190 5188 5186 5184 5182 5181